Simultaneous Nadir Overpasses (SNOs) Predictions

Prediction of SNOs between GOES-15 and METOP-C Satellite Orbit:

Table of predicted SNOs for the next 14.0 days since TLE Epoch: 10/12/2024
Index Date Time (GOES-15) GOES-15 Lat,Lon METOP-C Lat,Lon Distance(km) Time Diff (sec)
1 10/12/2024 05:34:08 -0.30, 61.22 0.23, 58.94 260.43 80
2 10/13/2024 05:16:10 -0.29, 61.22 -0.87, 63.93 308.33 80
3 10/14/2024 17:35:12 0.30, 61.36 -0.15, 59.33 230.87 80
4 10/15/2024 17:11:54 0.29, 61.37 0.97, 64.32 337.32 80
5 10/17/2024 05:30:46 -0.30, 61.25 0.03, 59.76 169.74 80
6 10/18/2024 05:12:46 -0.29, 61.25 -1.06, 64.76 398.82 80
7 10/19/2024 17:31:48 0.30, 61.39 0.03, 60.16 140.27 80
8 10/20/2024 17:08:28 0.29, 61.41 1.13, 65.16 427.42 80
9 10/22/2024 05:27:19 -0.29, 61.31 -0.12, 60.60 80.83 80
10 10/23/2024 05:09:20 -0.28, 61.32 -1.24, 65.59 487.39 80
11 10/24/2024 17:28:19 0.28, 61.46 0.15, 61.01 51.27 80
